TIANWANG 1A (TW-1A)
1 40928U 15051D   19282.80372326  .00002574  00000-0  63623-4 0  9990
2 40928  97.1376 311.5865 0011895  30.3985  55.9749 15.41311249226593
LAPAN A2
1 40931U 15052B   19281.80817167  .00001348  00000-0  98719-4 0  9993
2 40931   6.0099 337.0048 0013942 298.9597  60.9124 14.76623211217865
LQSAT
1 40958U 15057A   19282.79614176 -.00000007  00000-0  65680-5 0  9995
2 40958  97.8882 348.8750 0017033 235.7658 124.1937 14.73091020215456
CHUBUSAT 2
1 41338U 16012B   19282.73832050 +.00000327 +00000-0 +18721-4 0  9994
2 41338 031.0023 146.3267 0013726 143.7280 216.4287 15.00189978199909
CHUBUSAT 3
1 41339U 16012C   19282.76120123  .00000294  00000-0  16088-4 0  9996
2 41339  31.0101 144.1325 0013444 151.5982 208.5392 15.00362449199906
OUFTI-1
1 41458U 16025C   19282.81215295  .00001201  00000-0  64950-4 0  9993
2 41458  98.1004  15.4084 0165180 337.1264  22.2662 15.06067901189592
E-STAR-2
1 41459U 16025D   19282.85606030  .00001019  00000-0  56226-4 0  9993
2 41459  98.1005  15.0519 0166248 338.4059  21.0218 15.05694039189574
AAUSAT 4
1 41460U 16025E   19282.82034821 +.00000679 +00000-0 +38167-4 0  9990
2 41460 098.0934 016.5450 0156381 330.1333 029.1035 15.07665734189711
NUSAT 1
1 41557U 16033B   19282.86430672 +.00001199 +00000-0 +47361-4 0  9998
2 41557 097.4151 009.7017 0012157 256.2061 103.7826 15.27425868187363
BEESAT 4
1 41619U 16040W   19282.83430849 +.00001206 +00000-0 +53632-4 0  9995
2 41619 097.3561 342.8913 0010924 354.4974 005.6142 15.23352715171085
PRATHAM
1 41783U 16059A   19282.72206132 +.00000028 +00000-0 +14604-4 0  9998
2 41783 098.0555 339.7362 0034154 030.7007 329.6184 14.63012673162076
ALSAT 1N
1 41789U 16059G   19282.81919769  .00000050  00000-0  18561-4 0  9992
2 41789  98.0580 342.0753 0028652  19.8851 340.3452 14.64266102162204
NAYIF 1
1 42017U 17008BX  19282.77228248  .00001360  00000-0  56052-4 0  9994
2 42017  97.3926 348.6504 0007659 123.3798 236.8174 15.25773447147167
MAX VALIER SAT
1 42778U 17036P   19282.73561343 +.00000834 +00000-0 +39289-4 0  9999
2 42778 097.3426 337.8460 0012392 179.6676 180.4571 15.22170905127436
